Regional Weather Roundup
Issued by NWS Green Bay, WI

Home | Current Version | Previous Version | Graphics & Text | Print | Product List | Glossary Off
Versions: 1 2 3 4 5 6 7 8 9 10 11 12 13 14 15 16 17 18 19 20 21 22 23 24 25 26 27 28 29 30 31 32 33 34 35 36 37 38 39 40 41 42 43 44 45 46 47 48 49 50

000
ASUS43 KGRB 300111
RWRGRB

NORTH-CENTRAL AND NORTHEAST WISCONSIN REGIONAL WEATHER ROUNDUP
NATIONAL WEATHER SERVICE GREEN BAY WI
800 PM CDT FRI JUL 29 2016

WIZ005-009-010>012-018-019-300200-
NORTH CENTRAL WISCONSIN

CITY           SKY/WX    TMP DP  RH WIND       PRES   REMARKS
IRONWOOD       CLEAR     66  57  72 NE5       30.05R
MANITOWISH WTR CLEAR     70  60  70 N3        30.06R
ARBOR VITAE    CLEAR     72  60  64 CALM      30.06R
EAGLE RIVER    CLEAR     69  55  61 CALM      30.06R
LAND O LAKES   PTCLDY    72  56  56 CALM      30.07R
RHINELANDER    PTCLDY    69  59  70 SE3       30.07R
PHILLIPS       MOCLDY    72  60  64 CALM      30.04S
ANTIGO         PTCLDY    65  58  79 CALM      30.07S
TOMAHAWK       CLEAR     69  59  71 CALM      30.06R
MERRILL        CLOUDY    72  61  69 SE5       30.06S
$$

WIZ013-073-300200-
NORTHEAST WISCONSIN

CITY           SKY/WX    TMP DP  RH WIND       PRES   REMARKS
IRON MOUNTAIN  MOCLDY    71  53  52 S8        30.05R
MARINETTE      CLEAR    N/A N/A N/A NE5       30.05S
OCONTO         CLOUDY    71  59  66 NE3       30.03S
$$

WIZ017-030-035>037-045-300200-
CENTRAL WISCONSIN

CITY           SKY/WX    TMP DP  RH WIND       PRES   REMARKS
MEDFORD        CLEAR     69  61  77 E3        30.05S
WAUSAU         MOCLDY    69  61  75 E6        30.03S
MOSINEE        CLEAR     68  61  77 E5        30.05S
MARSHFIELD     CLOUDY    71  62  73 SE6       30.03S
WISC RAPIDS    CLOUDY    71  62  73 E5        30.03F
STEVENS POINT  CLOUDY    68  62  82 E5        30.04S
WAUPACA        CLOUDY    73  63  71 NE3       30.03S
SHAWANO        CLOUDY    71  57  61 E5        30.04S
CLINTONVILLE   CLOUDY    70  55  60 NE3       30.03S
WAUTOMA        CLOUDY    70  65  84 NE5       30.02S
$$

WIZ038-039-048-051-300200-
FOX VALLEY

CITY           SKY/WX    TMP DP  RH WIND       PRES   REMARKS
NWS GREEN BAY  CLOUDY    70  57  63 NE6       30.03R
APPLETON       MOCLDY    72  54  53 E9        30.01S
OSHKOSH        CLOUDY    72  60  66 E10       30.02R
FOND DU LAC    CLOUDY    72  60  66 NE12      30.02R
$$

WIZ022-050-052-300200-
EAST CENTRAL WISCONSIN

CITY           SKY/WX    TMP DP  RH WIND       PRES   REMARKS
EPHRAIM        FAIR      69  54  58 NE3       30.04S
WASHINGTON ISL NOT AVBL
STURGEON BAY   CLEAR     69  56  62 NE5       30.04S
MANITOWOC      CLOUDY    70  57  63 NE6       30.02S
SHEBOYGAN      CLOUDY    69  60  73 NE14      30.01S
$$

LMZ563-521-522-541>543-300200-
LAKESHORE

STATION/POSITION TIME  TEMP    WIND        PRES    VSBY  WAVE
                       AIR SEA DIR/SP/G                  HT/PER
                 (UTC) (F)     (DEG/KT/KT) (MB)    (MI)  (FT/S)
SHEBOYGAN LKSHOR 0100   65     350/ 12/ 12 1016.3R
KEWAUNEE LKSHORE 0000   69      30/  5/  9   N/A
ALGOMA MARINA    0013           20/ 11/ 16   N/A
NORTHPORT PIER   0000   72      80/  8/ 10 1016.9S
N MID LAKE BUOY  0050   71 70   40/  8/ 10 1016.5S         1/ 3
S GREEN BAY BUOY 0030   71 70   60/  8/ 12 1016.4S
SISTER BAY LKSHO 0021   77      80/  3/  8   N/A
CHAMBERS ISLAND  0000   73      60/  8/ 10 1016.9S
MENOMINEE LKSHOR 0006   73      50/ 10/ 12   N/A
$$




USA.gov is the U.S. government's official web portal to all federal, state and local government web resources and services.